| time (UTC) | temp F | wind direction | speed MPH | gust MPH | rain 1hr in | rain 24hr in | rain mn in | humidity % | barometer mb |
| 20260506114015 | 72 | 8 | 2.0 | 6.0 | 0.00 | 0.00 | 0.00 | 92 | 1008.7 |
| 20260506113015 | 72 | 8 | 1.0 | 5.0 | 0.00 | 0.00 | 0.00 | 91 | 1008.6 |
| 20260506112015 | 72 | 8 | 1.0 | 4.0 | 0.00 | 0.00 | 0.00 | 91 | 1008.7 |
| 20260506111015 | 72 | 8 | 1.0 | 4.0 | 0.00 | 0.00 | 0.00 | 91 | 1008.7 |
| 20260506110015 | 72 | 8 | 1.0 | 4.0 | 0.00 | 0.00 | 0.00 | 91 | 1008.5 |
| 20260506105015 | 72 | 8 | 2.0 | 6.0 | 0.00 | 0.00 | 0.00 | 91 | 1008.6 |
| 20260506104015 | 72 | 8 | 1.0 | 3.0 | 0.00 | 0.00 | 0.00 | 91 | 1008.6 |
| 20260506103015 | 73 | 360 | 0.0 | 7.0 | 0.00 | 0.00 | 0.00 | 90 | 1008.6 |
| 20260506102016 | 73 | 360 | 0.0 | 8.0 | 0.00 | 0.00 | 0.00 | 90 | 1008.6 |
| 20260506101015 | 73 | 269 | 1.0 | 5.0 | 0.00 | 0.00 | 0.00 | 90 | 1008.5 |
| 20260506100015 | 73 | 358 | 1.0 | 9.0 | 0.00 | 0.00 | 0.00 | 90 | 1008.4 |
| 20260506095015 | 73 | 360 | 1.0 | 8.0 | 0.00 | 0.00 | 0.00 | 90 | 1008.4 |
| 20260506094015 | 73 | 357 | 1.0 | 9.0 | 0.00 | 0.00 | 0.00 | 89 | 1008.3 |
| 20260506093015 | 73 | 360 | 0.0 | 4.0 | 0.00 | 0.00 | 0.00 | 89 | 1008.2 |
| 20260506092015 | 73 | 358 | 1.0 | 9.0 | 0.00 | 0.00 | 0.00 | 89 | 1008.0 |
| 20260506091016 | 73 | 360 | 1.0 | 8.0 | 0.00 | 0.00 | 0.00 | 89 | 1008.1 |
| 20260506090056 | 73 | 4 | 1.0 | 8.0 | 0.00 | 0.00 | 0.00 | 88 | 1008.2 |
| 20260506085015 | 73 | 360 | 1.0 | 7.0 | 0.00 | 0.00 | 0.00 | 88 | 1008.3 |
| 20260506084015 | 73 | 7 | 1.0 | 9.0 | 0.00 | 0.00 | 0.00 | 88 | 1008.3 |
| 20260506083015 | 73 | 8 | 1.0 | 8.0 | 0.00 | 0.00 | 0.00 | 88 | 1008.3 |
| 20260506082036 | 73 | 360 | 0.0 | 8.0 | 0.00 | 0.00 | 0.00 | 88 | 1008.2 |
| 20260506081015 | 73 | 360 | 0.0 | 4.0 | 0.00 | 0.00 | 0.00 | 88 | 1008.2 |
| 20260506073015 | 73 | 360 | 0.0 | 2.0 | 0.00 | 0.00 | 0.00 | 87 | 1008.5 |
| 20260506072015 | 73 | 360 | 0.0 | 5.0 | 0.00 | 0.00 | 0.00 | 87 | 1008.6 |
| 20260506071016 | 73 | 7 | 0.0 | 7.0 | 0.00 | 0.00 | 0.00 | 88 | 1008.7 |
| 20260506062016 | 74 | 360 | 0.0 | 2.0 | 0.00 | 0.00 | 0.00 | 87 | 1009.1 |
| 20260506061015 | 74 | 360 | 0.0 | 2.0 | 0.00 | 0.00 | 0.00 | 87 | 1009.0 |
| 20260506051035 | 74 | 360 | 0.0 | 3.0 | 0.00 | 0.00 | 0.00 | 86 | 1008.8 |
| 20260506045015 | 74 | 360 | 0.0 | 9.0 | 0.00 | 0.00 | 0.00 | 85 | 1008.9 |
| 20260506044015 | 74 | 74 | 1.0 | 7.0 | 0.00 | 0.00 | 0.00 | 85 | 1009.0 |
| 20260506043015 | 74 | 360 | 0.0 | 8.0 | 0.00 | 0.00 | 0.00 | 85 | 1008.8 |
| 20260506042015 | 74 | 360 | 0.0 | 2.0 | 0.00 | 0.00 | 0.00 | 85 | 1008.9 |
| 20260506041015 | 74 | 360 | 0.0 | 7.0 | 0.00 | 0.00 | 0.00 | 85 | 1008.7 |
| 20260506040015 | 75 | 360 | 0.0 | 6.0 | 0.00 | 0.00 | 0.00 | 85 | 1008.6 |
| 20260506035016 | 75 | 360 | 0.0 | 7.0 | 0.00 | 0.00 | 0.00 | 84 | 1008.5 |
| 20260506034015 | 75 | 360 | 1.0 | 9.0 | 0.00 | 0.00 | 0.00 | 84 | 1008.3 |
| 20260506033015 | 75 | 360 | 0.0 | 9.0 | 0.00 | 0.00 | 0.00 | 83 | 1008.1 |
| 20260506032015 | 75 | 360 | 0.0 | 0.0 | 0.00 | 0.00 | 0.00 | 83 | 1008.1 |
| 20260506031015 | 75 | 360 | 0.0 | 0.0 | 0.00 | 0.00 | 0.00 | 82 | 1007.9 |
| 20260506030015 | 76 | 360 | 0.0 | 1.0 | 0.00 | 0.00 | 0.00 | 81 | 1007.8 |
| 20260506025015 | 76 | 0.0 | 0.0 | 0.00 | 0.00 | 0.00 | 81 | 1007.6 | |
| 20260506024015 | 76 | 360 | 0.0 | 4.0 | 0.00 | 0.00 | 0.00 | 80 | 1007.4 |
| 20260506023015 | 77 | 360 | 0.0 | 1.0 | 0.00 | 0.00 | 0.00 | 79 | 1007.2 |
| 20260506022015 | 77 | 360 | 0.0 | 9.0 | 0.00 | 0.00 | 0.00 | 78 | 1007.2 |
| 20260506021015 | 77 | 0.0 | 0.0 | 0.00 | 0.00 | 0.00 | 77 | 1007.1 | |
| 20260506020015 | 78 | 360 | 0.0 | 6.0 | 0.00 | 0.00 | 0.00 | 76 | 1006.9 |
| 20260506015015 | 78 | 360 | 0.0 | 2.0 | 0.00 | 0.00 | 0.00 | 75 | 1006.8 |
| 20260506014015 | 78 | 0.0 | 0.0 | 0.00 | 0.00 | 0.00 | 74 | 1006.7 | |
| 20260506013015 | 78 | 24 | 0.0 | 7.0 | 0.00 | 0.00 | 0.00 | 73 | 1006.7 |
| 20260506012015 | 79 | 77 | 1.0 | 4.0 | 0.00 | 0.00 | 0.00 | 73 | 1006.6 |
| 20260506011015 | 79 | 80 | 3.0 | 7.0 | 0.00 | 0.00 | 0.00 | 73 | 1006.5 |
| 20260506010015 | 79 | 85 | 2.0 | 4.0 | 0.00 | 0.00 | 0.00 | 72 | 1006.4 |
| 20260506005055 | 79 | 83 | 1.0 | 4.0 | 0.00 | 0.00 | 0.00 | 71 | 1006.4 |
| 20260506004015 | 80 | 76 | 1.0 | 6.0 | 0.00 | 0.00 | 0.00 | 71 | 1006.4 |
| 20260506003015 | 80 | 79 | 3.0 | 5.0 | 0.00 | 0.00 | 0.00 | 70 | 1006.2 |
| 20260506002035 | 80 | 78 | 2.0 | 6.0 | 0.00 | 0.00 | 0.00 | 69 | 1006.2 |
| 20260506001015 | 80 | 75 | 2.0 | 6.0 | 0.00 | 0.00 | 0.00 | 69 | 1006.1 |
| 20260506000035 | 80 | 360 | 0.0 | 0.0 | 0.00 | 0.00 | 0.00 | 69 | 1006.0 |
| 20260505235015 | 80 | 360 | 1.0 | 9.0 | 0.00 | 0.00 | 0.00 | 68 | 1005.9 |
| 20260505234015 | 80 | 20 | 0.0 | 8.0 | 0.00 | 0.00 | 0.00 | 69 | 1005.9 |
| 20260505233015 | 80 | 360 | 0.0 | 3.0 | 0.00 | 0.00 | 0.00 | 68 | 1005.8 |
| 20260505232015 | 80 | 0.0 | 0.0 | 0.00 | 0.00 | 0.00 | 68 | 1005.7 | |
| 20260505231015 | 80 | 360 | 0.0 | 7.0 | 0.00 | 0.00 | 0.00 | 67 | 1005.7 |
| 20260505230015 | 80 | 67 | 1.0 | 10.0 | 0.00 | 0.00 | 0.00 | 67 | 1005.7 |
| 20260505225015 | 80 | 15 | 0.0 | 6.0 | 0.00 | 0.00 | 0.00 | 67 | 1005.8 |
| 20260505224015 | 80 | 71 | 2.0 | 8.0 | 0.00 | 0.00 | 0.00 | 68 | 1005.9 |
| 20260505223015 | 80 | 0.0 | 0.0 | 0.00 | 0.00 | 0.00 | 67 | 1005.9 | |
| 20260505222015 | 81 | 75 | 1.0 | 7.0 | 0.00 | 0.00 | 0.00 | 67 | 1006.0 |
| 20260505221015 | 80 | 24 | 0.0 | 3.0 | 0.00 | 0.00 | 0.00 | 68 | 1006.0 |
| 20260505220015 | 80 | 360 | 0.0 | 4.0 | 0.00 | 0.00 | 0.00 | 68 | 1006.1 |
| 20260505215035 | 80 | 360 | 0.0 | 1.0 | 0.00 | 0.00 | 0.00 | 67 | 1006.4 |
| 20260505214015 | 80 | 0.0 | 0.0 | 0.00 | 0.00 | 0.00 | 67 | 1006.5 | |
| 20260505213015 | 80 | 72 | 3.0 | 10.0 | 0.00 | 0.00 | 0.00 | 67 | 1006.6 |
| 20260505212035 | 80 | 46 | 1.0 | 9.0 | 0.00 | 0.00 | 0.00 | 67 | 1006.7 |
| 20260505211015 | 80 | 54 | 1.0 | 9.0 | 0.00 | 0.00 | 0.00 | 68 | 1006.9 |
| 20260505210055 | 80 | 72 | 1.0 | 8.0 | 0.00 | 0.00 | 0.00 | 68 | 1007.0 |
| 20260505205015 | 80 | 360 | 0.0 | 1.0 | 0.00 | 0.00 | 0.00 | 68 | 1007.2 |
| 20260505204015 | 80 | 14 | 1.0 | 8.0 | 0.00 | 0.00 | 0.00 | 68 | 1007.4 |
| 20260505203015 | 80 | 50 | 3.0 | 10.0 | 0.00 | 0.00 | 0.00 | 69 | 1007.5 |
| 20260505202015 | 79 | 360 | 0.0 | 0.0 | 0.00 | 0.00 | 0.00 | 69 | 1007.6 |
| 20260505201015 | 79 | 0.0 | 0.0 | 0.00 | 0.00 | 0.00 | 72 | 1007.7 | |
| 20260505200015 | 79 | 54 | 0.0 | 8.0 | 0.00 | 0.00 | 0.00 | 71 | 1007.8 |
| 20260505195015 | 78 | 360 | 1.0 | 10.0 | 0.00 | 0.00 | 0.00 | 75 | 1007.9 |
| 20260505194015 | 77 | 360 | 0.0 | 7.0 | 0.00 | 0.00 | 0.00 | 75 | 1008.0 |
| 20260505193036 | 77 | 29 | 0.0 | 0.0 | 0.00 | 0.00 | 0.00 | 75 | 1008.1 |
| 20260505192015 | 77 | 360 | 0.0 | 2.0 | 0.00 | 0.00 | 0.00 | 75 | 1008.2 |
| 20260505191015 | 77 | 358 | 0.0 | 6.0 | 0.00 | 0.00 | 0.00 | 75 | 1008.4 |
| 20260505190015 | 77 | 360 | 0.0 | 0.0 | 0.00 | 0.00 | 0.00 | 75 | 1008.7 |
| 20260505185036 | 77 | 360 | 0.0 | 0.0 | 0.00 | 0.00 | 0.00 | 76 | 1008.7 |
| 20260505184015 | 76 | 360 | 1.0 | 9.0 | 0.00 | 0.00 | 0.00 | 77 | 1008.8 |
| 20260505183015 | 76 | 10 | 0.0 | 6.0 | 0.00 | 0.00 | 0.00 | 79 | 1008.8 |
| 20260505182015 | 75 | 28 | 0.0 | 5.0 | 0.00 | 0.00 | 0.00 | 80 | 1008.9 |
| 20260505181015 | 75 | 360 | 0.0 | 4.0 | 0.00 | 0.00 | 0.00 | 79 | 1009.0 |
| 20260505180015 | 75 | 360 | 0.0 | 8.0 | 0.00 | 0.00 | 0.00 | 80 | 1009.0 |
| 20260505175035 | 75 | 359 | 0.0 | 7.0 | 0.00 | 0.00 | 0.00 | 80 | 1009.0 |
| 20260505174015 | 75 | 360 | 0.0 | 0.0 | 0.00 | 0.00 | 0.00 | 81 | 1009.1 |
| 20260505173035 | 74 | 360 | 0.0 | 8.0 | 0.00 | 0.00 | 0.00 | 83 | 1009.2 |
| 20260505172015 | 74 | 0.0 | 0.0 | 0.00 | 0.00 | 0.00 | 83 | 1009.3 | |
| 20260505171015 | 73 | 0.0 | 0.0 | 0.00 | 0.00 | 0.00 | 84 | 1009.3 | |
| 20260505170015 | 73 | 0.0 | 0.0 | 0.00 | 0.00 | 0.00 | 84 | 1009.2 | |
| 20260505165036 | 73 | 234 | 6.0 | 12.0 | 0.00 | 0.00 | 0.00 | 85 | 1009.2 |
| 20260505164015 | 72 | 234 | 5.0 | 11.0 | 0.00 | 0.00 | 0.00 | 87 | 1009.2 |
| 20260505163015 | 72 | 237 | 3.0 | 9.0 | 0.00 | 0.00 | 0.00 | 87 | 1009.2 |
| 20260505162035 | 71 | 235 | 5.0 | 9.0 | 0.00 | 0.00 | 0.00 | 88 | 1009.2 |
| 20260505161015 | 71 | 236 | 4.0 | 10.0 | 0.00 | 0.00 | 0.00 | 89 | 1009.2 |
| 20260505153015 | 70 | 244 | 3.0 | 9.0 | 0.00 | 0.00 | 0.00 | 91 | 1009.1 |
| 20260505152015 | 70 | 239 | 3.0 | 11.0 | 0.00 | 0.00 | 0.00 | 92 | 1009.1 |
| 20260505151015 | 69 | 245 | 2.0 | 7.0 | 0.00 | 0.00 | 0.00 | 92 | 1009.1 |
| 20260505125035 | 68 | 1 | 5.0 | 11.0 | 0.00 | 0.00 | 0.00 | 93 | 1008.5 |
| 20260505124015 | 68 | 3 | 3.0 | 10.0 | 0.00 | 0.00 | 0.00 | 93 | 1008.5 |
| 20260505123015 | 68 | 358 | 6.0 | 15.0 | 0.00 | 0.00 | 0.00 | 92 | 1008.2 |
| 20260505122015 | 68 | 359 | 5.0 | 10.0 | 0.00 | 0.00 | 0.00 | 92 | 1008.0 |
| 20260505121015 | 68 | 357 | 6.0 | 13.0 | 0.00 | 0.00 | 0.00 | 92 | 1008.0 |
| 20260505120015 | 68 | 359 | 5.0 | 11.0 | 0.00 | 0.00 | 0.00 | 92 | 1008.0 |
| 20260505115015 | 68 | 1 | 5.0 | 14.0 | 0.00 | 0.00 | 0.00 | 92 | 1007.9 |